Date String (YYYY-MM-DD hh:mm:ss) UTC,Instrument flags,Ambient pressure (hPa),Sample flow (lpm),Bypass flow (lpm),Sample temperature (°C),Ambient temperature (°C),ASC tube jacket temperature (°C),LED temperature (°C),Box temperature (°C),Sample RH (%),Span deviation,Mass concentration (μg/m³),Mass concentration (μg/m³),Mass concentration (μg/m³)
DateTimeUTC,F1_M11,P_M11,Q1_M11,Q2_M11,T1_M11,T2_M11,T3_M11,T4_M11,T5_M11,U1_M11,ZSPAN_M11,X0_M11,X2_M11,X1_M11
2022-02-13 22:00:00,,0828.2,4.99,0.00,25.3,24.4,00.0,34.3,27.0,06.4,0000.0,0001.14,0000.62,0000.49
2022-02-13 22:01:00,,0828.3,5.01,0.00,25.3,24.4,00.0,34.3,27.0,06.7,0000.0,0000.97,0000.63,0000.50
2022-02-13 22:02:00,,0828.3,4.98,0.00,25.3,24.4,00.0,34.3,27.0,06.5,0000.0,0000.97,0000.64,0000.50
2022-02-13 22:03:00,,0828.3,5.02,0.00,25.3,24.3,00.0,34.3,26.9,07.1,0000.0,0001.41,0000.64,0000.50
2022-02-13 22:04:00,,0828.2,4.99,0.00,25.3,24.3,00.0,34.3,26.9,06.8,0000.0,0001.56,0000.65,0000.51
2022-02-13 22:05:00,,0828.3,5.00,0.00,25.3,24.2,00.0,34.3,27.0,06.7,0000.0,0001.59,0000.66,0000.51
2022-02-13 22:06:00,,0828.3,5.01,0.00,25.3,24.2,00.0,34.3,26.9,06.7,0000.0,0001.53,0000.65,0000.51
2022-02-13 22:07:00,,0828.3,5.01,0.00,25.3,24.2,00.0,34.3,26.9,07.0,0000.0,0001.54,0000.66,0000.52
2022-02-13 22:08:00,,0828.2,4.99,0.00,25.2,24.2,00.0,34.3,26.9,06.7,0000.0,0001.63,0000.65,0000.51
2022-02-13 22:09:00,,0828.3,5.00,0.00,25.2,24.2,00.0,34.3,26.9,07.0,0000.0,0001.67,0000.65,0000.51
2022-02-13 22:10:00,,0828.3,5.00,0.00,25.2,24.1,00.0,34.2,26.8,06.9,0000.0,0001.63,0000.63,0000.49
2022-02-13 22:11:00,,0828.3,4.99,0.00,25.2,24.0,00.0,34.2,26.9,06.9,0000.0,0001.67,0000.63,0000.48
2022-02-13 22:12:00,,0828.3,5.00,0.00,25.2,24.0,00.0,34.2,26.9,06.8,0000.0,0001.64,0000.62,0000.48
2022-02-13 22:13:00,,0828.3,5.00,0.00,25.2,24.0,00.0,34.2,26.8,06.7,0000.0,0001.67,0000.64,0000.48
2022-02-13 22:14:00,,0828.3,5.00,0.00,25.2,24.0,00.0,34.2,26.8,07.3,0000.0,0001.25,0000.64,0000.48
2022-02-13 22:15:00,,0828.3,4.99,0.00,25.2,24.0,00.0,34.2,26.8,06.9,0000.0,0001.12,0000.65,0000.48
2022-02-13 22:16:00,,0828.3,5.00,0.00,25.2,24.1,00.0,34.2,26.9,07.0,0000.0,0001.11,0000.64,0000.48
2022-02-13 22:17:00,,0828.3,5.01,0.00,25.2,24.1,00.0,34.2,26.8,07.0,0000.0,0001.17,0000.67,0000.48
2022-02-13 22:18:00,,0828.3,4.99,0.00,25.2,24.1,00.0,34.2,26.8,06.7,0000.0,0001.20,0000.68,0000.48
2022-02-13 22:19:00,,0828.3,5.01,0.00,25.2,24.1,00.0,34.2,26.9,06.4,0000.0,0001.08,0000.66,0000.47
2022-02-13 22:20:00,,0828.3,5.00,0.00,25.2,24.1,00.0,34.2,26.9,07.2,0000.0,0001.26,0000.63,0000.47
2022-02-13 22:21:00,,0828.3,4.99,0.00,25.2,24.1,00.0,34.2,26.9,06.6,0000.0,0001.26,0000.64,0000.47
2022-02-13 22:22:00,,0828.3,5.01,0.00,25.2,24.1,00.0,34.2,26.9,07.1,0000.0,0001.23,0000.63,0000.48
2022-02-13 22:23:00,,0828.3,5.00,0.00,25.2,24.1,00.0,34.2,26.9,07.3,0000.0,0001.27,0000.65,0000.48
2022-02-13 22:24:00,,0828.2,5.00,0.00,25.2,24.2,00.0,34.2,26.9,07.0,0000.0,0001.40,0000.64,0000.48
2022-02-13 22:25:00,,0828.3,5.00,0.00,25.2,24.2,00.0,34.2,26.9,07.3,0000.0,0001.63,0000.64,0000.47
2022-02-13 22:26:00,,0828.3,5.00,0.00,25.2,24.1,00.0,34.2,26.9,07.2,0000.0,0001.62,0000.64,0000.47
2022-02-13 22:27:00,,0828.2,5.00,0.00,25.2,24.1,00.0,34.2,26.9,06.8,0000.0,0001.67,0000.66,0000.47
2022-02-13 22:28:00,,0828.2,4.99,0.00,25.2,24.1,00.0,34.2,26.9,07.0,0000.0,0001.74,0000.68,0000.48
2022-02-13 22:29:00,,0828.2,5.02,0.00,25.2,24.2,00.0,34.2,26.9,07.0,0000.0,0001.71,0000.67,0000.47
2022-02-13 22:30:00,,0828.3,4.99,0.00,25.2,24.2,00.0,34.2,26.9,06.8,0000.0,0001.77,0000.70,0000.48
2022-02-13 22:31:00,,0828.3,5.01,0.00,25.2,24.2,00.0,34.2,27.0,06.6,0000.0,0001.55,0000.74,0000.49
2022-02-13 22:32:00,,0828.2,4.99,0.00,25.2,24.2,00.0,34.2,26.9,06.9,0000.0,0001.56,0000.74,0000.49
2022-02-13 22:33:00,,0828.1,5.00,0.00,25.2,24.2,00.0,34.2,27.0,06.2,0000.0,0001.57,0000.74,0000.49
2022-02-13 22:34:00,,0828.3,5.00,0.00,25.2,24.2,00.0,34.2,27.0,05.7,0000.0,0001.55,0000.73,0000.49
2022-02-13 22:35:00,,0828.3,5.01,0.00,25.2,24.3,00.0,34.2,27.0,06.0,0000.0,0001.35,0000.72,0000.49
2022-02-13 22:36:00,,0828.2,4.99,0.00,25.2,24.3,00.0,34.2,27.0,06.4,0000.0,0001.19,0000.74,0000.49
2022-02-13 22:37:00,,0828.4,5.01,0.00,25.2,24.3,00.0,34.2,26.9,06.4,0000.0,0001.16,0000.74,0000.49
2022-02-13 22:38:00,,0828.3,5.00,0.00,25.2,24.2,00.0,34.2,26.9,05.9,0000.0,0001.15,0000.73,0000.50
2022-02-13 22:39:00,,0828.3,4.99,0.00,25.2,24.2,00.0,34.2,26.9,06.1,0000.0,0001.04,0000.69,0000.50
2022-02-13 22:40:00,,0828.3,5.01,0.00,25.2,24.2,00.0,34.2,26.9,05.9,0000.0,0001.00,0000.67,0000.50
2022-02-13 22:41:00,,0828.2,5.00,0.00,25.2,24.2,00.0,34.2,26.9,06.5,0000.0,0001.06,0000.69,0000.51
2022-02-13 22:42:00,,0828.2,5.00,0.00,25.2,24.1,00.0,34.2,26.9,06.5,0000.0,0001.02,0000.68,0000.52
2022-02-13 22:43:00,,0828.2,5.01,0.00,25.2,24.1,00.0,34.2,26.9,07.1,0000.0,0001.11,0000.71,0000.53
2022-02-13 22:44:00,,0828.5,4.99,0.00,25.2,24.1,00.0,34.2,26.9,07.0,0000.0,0001.11,0000.72,0000.53
2022-02-13 22:45:00,,0828.2,5.01,0.00,25.2,24.1,00.0,34.2,26.9,06.9,0000.0,0001.10,0000.72,0000.54
2022-02-13 22:46:00,,0828.2,5.00,0.00,25.2,24.1,00.0,34.2,26.9,06.7,0000.0,0001.14,0000.73,0000.55
2022-02-13 22:47:00,,0828.2,4.99,0.00,25.2,24.1,00.0,34.2,26.9,06.5,0000.0,0001.13,0000.72,0000.55
2022-02-13 22:48:00,,0828.2,5.01,0.00,25.2,24.1,00.0,34.2,26.9,06.4,0000.0,0001.19,0000.73,0000.56
2022-02-13 22:49:00,,0828.1,4.99,0.00,25.2,24.1,00.0,34.2,26.9,07.2,0000.0,0001.84,0000.74,0000.56
2022-02-13 22:50:00,,0828.2,5.01,0.00,25.2,24.1,00.0,34.2,26.9,06.7,0000.0,0001.88,0000.75,0000.55
2022-02-13 22:51:00,,0828.1,4.99,0.00,25.2,24.1,00.0,34.2,26.8,06.2,0000.0,0001.84,0000.74,0000.55
2022-02-13 22:52:00,,0828.1,5.02,0.00,25.2,24.0,00.0,34.2,26.8,05.9,0000.0,0001.75,0000.71,0000.55
2022-02-13 22:53:00,,0828.2,5.00,0.00,25.2,24.1,00.0,34.2,26.9,06.1,0000.0,0001.71,0000.69,0000.54
2022-02-13 22:54:00,,0828.2,4.99,0.00,25.2,24.1,00.0,34.2,26.8,05.9,0000.0,0001.65,0000.67,0000.54
2022-02-13 22:55:00,,0828.1,5.03,0.00,25.2,24.1,00.0,34.2,26.8,06.4,0000.0,0001.69,0000.69,0000.54
2022-02-13 22:56:00,,0828.2,4.99,0.00,25.2,24.1,00.0,34.2,26.9,06.7,0000.0,0001.80,0000.73,0000.54
2022-02-13 22:57:00,,0828.1,5.01,0.00,25.2,24.1,00.0,34.2,26.8,06.5,0000.0,0001.80,0000.73,0000.55
2022-02-13 22:58:00,,0828.1,5.00,0.00,25.1,24.0,00.0,34.2,26.8,06.6,0000.0,0001.79,0000.73,0000.55
2022-02-13 22:59:00,,0828.1,5.00,0.00,25.1,24.1,00.0,34.1,26.7,06.3,0000.0,0001.85,0000.75,0000.54
